DateTimeUTC,F1_A11,F1_S11,BsB_S11,BsG_S11,BsR_S11,BbsB_S11,BbsG_S11,BbsR_S11,BaB_A11,BaG_A11,BaR_A11,Tu_S11,T_S11,Uu_S11,U_S11,P_S11,T1_A11
2021-07-31T17:00:00Z,00000200,20000000,,,,,,,-000.37,-000.23,-000.21,20.4,26.9,11.4,07.7,0679.6,31.2
2021-07-31T17:01:00Z,00000200,20000000,,,,,,,0000.21,-000.04,0000.03,20.4,26.9,11.2,07.6,0679.6,31.2
2021-07-31T17:02:00Z,00000200,20000000,,,,,,,-000.04,-000.30,0000.05,20.4,26.9,11.2,07.6,0679.6,31.2
2021-07-31T17:03:00Z,00000200,60000000,,,,,,,0001.73,0001.68,0001.41,20.4,26.9,11.2,07.6,0679.6,31.2
2021-07-31T17:04:00Z,00000200,40000000,0009.93,0007.42,0004.46,0001.70,0000.65,0000.84,0002.25,0002.44,0001.65,20.5,26.7,11.3,07.8,0680.6,31.1
2021-07-31T17:05:00Z,00000200,00000000,0009.54,0007.53,0004.33,0001.16,0000.92,0000.75,0003.11,0002.55,0001.70,20.5,26.7,11.2,07.7,0680.6,31.1
2021-07-31T17:06:00Z,00000200,00000000,0009.31,0006.91,0004.37,0001.39,0000.85,0000.72,0002.49,0002.32,0001.53,20.5,26.7,11.3,07.8,0680.6,31.1
2021-07-31T17:07:00Z,00000200,00000000,0010.14,0007.35,0004.55,0000.92,0001.04,0000.79,0002.81,0002.32,0002.47,20.5,26.7,11.2,07.7,0680.6,31.1
2021-07-31T17:08:00Z,00000200,00000000,0009.33,0007.14,0004.42,0001.55,0000.78,0000.73,0002.34,0002.48,0001.45,20.5,26.7,11.3,07.8,0680.6,31.2
2021-07-31T17:09:00Z,00000200,00000000,0009.59,0007.40,0004.47,0000.89,0001.13,0000.65,0002.13,0001.89,0001.49,20.5,26.7,11.2,07.7,0680.6,31.2
2021-07-31T17:10:00Z,00000200,00000000,0009.19,0007.13,0004.62,0001.53,0000.61,0000.96,0002.25,0002.41,0002.01,20.5,26.6,11.3,07.8,0680.6,31.2
2021-07-31T17:11:00Z,00000200,00000000,0009.71,0006.90,0004.67,0001.49,0000.71,0000.66,0003.09,0002.38,0001.83,20.5,26.6,11.2,07.7,0680.6,31.2
2021-07-31T17:12:00Z,00000200,00000000,0009.18,0006.75,0004.38,0001.49,0000.94,0000.78,0002.28,0002.27,0001.75,20.5,26.7,11.3,07.8,0680.6,31.2
2021-07-31T17:13:00Z,00000200,00000000,0009.95,0006.71,0004.06,0001.42,0001.04,0000.40,0002.16,0001.87,0001.32,20.5,26.6,11.2,07.8,0680.6,31.1
2021-07-31T17:14:00Z,00000200,00000000,0008.58,0006.55,0004.15,0001.68,0000.65,0000.41,0002.55,0001.99,0001.78,20.5,26.7,11.2,07.8,0680.6,31.1
2021-07-31T17:15:00Z,00000200,00000000,0009.15,0006.98,0004.61,0000.84,0000.86,0000.79,0002.40,0002.50,0001.72,20.5,26.6,11.2,07.8,0680.6,31.1
2021-07-31T17:16:00Z,00000200,00000000,0009.64,0006.76,0004.02,0001.14,0001.18,0000.84,0002.63,0001.84,0001.58,20.5,26.7,11.2,07.7,0680.7,31.1
2021-07-31T17:17:00Z,00000200,00000000,0009.74,0007.43,0004.73,0001.21,0001.04,0000.80,0002.54,0002.62,0002.03,20.5,26.6,11.3,07.8,0680.7,31.1
2021-07-31T17:18:00Z,00000200,00000000,0008.74,0007.38,0004.49,0001.56,0000.69,0000.98,0002.49,0002.17,0001.28,20.5,26.6,11.2,07.8,0680.6,31.1
2021-07-31T17:19:00Z,00000200,00000000,0010.41,0007.28,0004.42,0001.56,0001.05,0000.57,0002.35,0002.50,0001.99,20.5,26.6,11.2,07.7,0680.7,31.1
2021-07-31T17:20:00Z,00000200,00000000,0009.61,0007.27,0004.55,0001.29,0000.96,0000.98,0002.25,0002.21,0001.64,20.5,26.6,11.1,07.7,0680.7,31.1
2021-07-31T17:21:00Z,00000200,00000000,0010.31,0006.79,0004.48,0001.32,0000.92,0000.93,0002.73,0002.22,0001.93,20.5,26.6,11.2,07.7,0680.7,31.1
2021-07-31T17:22:00Z,00000200,00000000,0009.60,0007.14,0004.09,0001.76,0000.89,0000.87,0002.44,0002.11,0001.59,20.5,26.6,11.1,07.7,0680.7,31.2
2021-07-31T17:23:00Z,00000200,00000000,0008.58,0006.73,0004.39,0001.63,0000.93,0000.74,0002.31,0001.92,0001.52,20.5,26.6,11.3,07.8,0680.7,31.1
2021-07-31T17:24:00Z,00000200,00000000,0009.36,0006.75,0004.24,0001.20,0000.70,0000.49,0001.94,0001.97,0001.44,20.5,26.6,11.3,07.8,0680.7,31.1
2021-07-31T17:25:00Z,00000200,00000000,0009.17,0006.80,0004.23,0001.08,0000.90,0000.55,0002.43,0002.04,0001.65,20.5,26.6,11.3,07.8,0680.7,31.1
2021-07-31T17:26:00Z,00000200,00000000,0010.12,0007.12,0004.04,0000.95,0000.65,0000.67,0002.58,0002.27,0001.22,20.5,26.6,11.2,07.7,0680.7,31.2
2021-07-31T17:27:00Z,00000200,00000000,0009.07,0007.17,0004.13,0000.81,0000.65,0000.38,0002.18,0002.02,0002.02,20.5,26.6,11.1,07.7,0680.7,31.1
2021-07-31T17:28:00Z,00000200,00000000,0008.44,0006.44,0004.06,0001.00,0000.78,0000.57,0002.27,0002.33,0001.41,20.5,26.6,11.1,07.7,0680.7,31.1
2021-07-31T17:29:00Z,00000200,00000000,0008.84,0006.49,0003.95,0001.39,0000.77,0000.84,0001.78,0001.74,0001.66,20.5,26.6,11.1,07.7,0680.7,31.1
2021-07-31T17:30:00Z,00000200,00000000,0008.93,0006.57,0003.97,0000.22,0000.84,0000.46,0002.57,0001.89,0001.87,20.5,26.6,11.1,07.7,0680.7,31.1
2021-07-31T17:31:00Z,00000200,00000000,0009.65,0006.36,0003.94,0001.14,0000.90,0000.88,0001.97,0002.33,0001.08,20.5,26.6,11.1,07.7,0680.7,31.1
2021-07-31T17:32:00Z,00000200,00000000,0009.20,0006.32,0004.21,0001.04,0000.56,0000.35,0002.05,0001.89,0001.60,20.5,26.6,11.1,07.7,0680.7,31.1
2021-07-31T17:33:00Z,00000200,00000000,0008.27,0006.33,0003.92,0000.71,0000.63,0001.27,0002.24,0002.11,0001.32,20.5,26.6,11.1,07.7,0680.8,31.1
2021-07-31T17:34:00Z,00000200,00000000,0007.91,0006.51,0004.16,0001.23,0000.82,0000.72,0002.00,0001.47,0001.70,20.5,26.6,11.1,07.7,0680.8,31.2
2021-07-31T17:35:00Z,00000200,00000000,0009.07,0006.50,0003.83,0001.40,0000.71,0000.62,0002.00,0002.20,0001.89,20.5,26.6,11.0,07.6,0680.8,31.2
2021-07-31T17:36:00Z,00000200,00000000,0008.63,0007.31,0004.21,0001.89,0001.09,0000.55,0002.17,0001.67,0000.80,20.5,26.6,11.0,07.6,0680.8,31.2
2021-07-31T17:37:00Z,00000200,00000000,0009.35,0006.73,0004.60,0001.45,0000.61,0000.88,0002.10,0002.08,0001.72,20.5,26.6,11.0,07.6,0680.8,31.2
2021-07-31T17:38:00Z,00000200,00000000,0009.62,0007.12,0004.46,0001.26,0001.00,0000.60,0002.21,0001.94,0001.71,20.5,26.6,11.0,07.6,0680.8,31.2
2021-07-31T17:39:00Z,00000200,00000000,0009.76,0007.27,0004.72,0000.93,0000.73,0000.96,0002.36,0001.98,0001.48,20.5,26.6,11.0,07.6,0680.8,31.2
2021-07-31T17:40:00Z,00000200,00000000,0009.00,0006.78,0004.12,0001.06,0000.58,0000.70,0002.02,0002.13,0001.44,20.5,26.6,11.0,07.6,0680.7,31.1
2021-07-31T17:41:00Z,00000200,00000000,0007.64,0006.41,0004.03,0000.51,0001.18,0000.56,0002.24,0001.80,0001.23,20.5,26.6,11.1,07.7,0680.7,31.1
2021-07-31T17:42:00Z,00000200,00000000,0008.47,0006.25,0004.47,0000.89,0000.50,0000.79,0001.75,0001.83,0001.55,20.5,26.6,11.0,07.6,0680.8,31.1
2021-07-31T17:43:00Z,00000200,00000000,0008.47,0006.09,0003.94,0001.15,0000.91,0000.66,0002.10,0001.75,0001.56,20.5,26.6,11.0,07.6,0680.7,31.1
2021-07-31T17:44:00Z,00000200,00000000,0008.77,0006.34,0004.04,0000.76,0000.75,0000.48,0002.12,0001.74,0001.25,20.5,26.6,11.0,07.6,0680.7,31.1
2021-07-31T17:45:00Z,00000200,00000000,0007.63,0006.44,0004.07,0001.14,0000.65,0000.22,0001.63,0001.75,0001.50,20.5,26.6,10.9,07.5,0680.7,31.1
2021-07-31T17:46:00Z,00000200,00000000,0008.08,0006.46,0003.81,0001.39,0000.61,0000.58,0002.02,0001.92,0001.32,20.5,26.6,10.9,07.6,0680.7,31.1
2021-07-31T17:47:00Z,00000200,00000000,0008.45,0005.93,0004.14,0000.49,0000.49,0000.54,0002.05,0001.94,0001.40,20.5,26.6,11.0,07.6,0680.7,31.1
2021-07-31T17:48:00Z,00000200,00000000,0008.42,0006.45,0004.26,0001.18,0000.58,0000.66,0001.87,0001.69,0001.20,20.5,26.6,11.0,07.6,0680.7,31.1
2021-07-31T17:49:00Z,00000200,00000000,0007.21,0006.14,0003.97,0001.23,0000.88,0000.58,0001.85,0001.46,0001.12,20.5,26.6,10.9,07.5,0680.7,31.1
2021-07-31T17:50:00Z,00000200,00000000,0007.21,0006.45,0003.93,0000.65,0000.86,0000.31,0001.65,0001.69,0001.42,20.5,26.6,10.9,07.5,0680.7,31.1
2021-07-31T17:51:00Z,00000200,00000000,0007.91,0005.90,0003.93,0001.46,0000.82,0000.82,0002.44,0001.94,0001.62,20.5,26.6,10.8,07.5,0680.7,31.1
2021-07-31T17:52:00Z,00000200,00000000,0007.77,0006.09,0003.85,0000.83,0000.50,0000.48,0001.74,0001.94,0001.21,20.5,26.6,10.8,07.5,0680.7,31.1
2021-07-31T17:53:00Z,00000200,00000000,0007.51,0006.06,0003.30,0001.01,0000.60,0000.37,0001.95,0001.71,0001.67,20.5,26.6,10.8,07.5,0680.7,31.1
2021-07-31T17:54:00Z,00000200,00000000,0007.34,0005.84,0003.61,0001.14,0000.52,0000.58,0001.92,0001.64,0001.23,20.5,26.6,10.8,07.5,0680.7,31.1
2021-07-31T17:55:00Z,00000200,00000000,0007.31,0005.83,0004.06,0000.74,0000.71,0000.46,0001.37,0001.51,0001.20,20.4,26.5,10.9,07.5,0680.7,31.1
2021-07-31T17:56:00Z,00000200,00000000,0008.02,0006.02,0003.88,0001.07,0000.78,0000.66,0001.88,0001.77,0001.19,20.4,26.6,10.8,07.5,0680.7,31.1
2021-07-31T17:57:00Z,00000200,40000000,,,,,,,0000.65,0000.50,0000.67,20.5,26.6,10.7,07.4,0680.6,31.1
2021-07-31T17:58:00Z,00000200,60000000,,,,,,,0000.46,0000.07,0000.05,20.3,26.7,11.0,07.4,0679.7,31.1
2021-07-31T17:59:00Z,00000200,20000000,,,,,,,-000.29,-000.17,-000.04,20.3,26.8,11.0,07.4,0679.7,31.1
